Terminal Aerodrome Forecast
Issued by NWS Cheyenne, WY

Home | Current Version | Previous Version | Text Only | Print | Product List | Glossary On
Versions: 1 2 3 4 5 6 7 8 9 10 11 12 13 14 15 16 17 18 19 20 21 22 23 24 25 26 27 28 29 30 31 32 33 34 35 36 37 38 39 40 41 42 43 44 45 46
000
FTUS45 KCYS 271137
TAFCYS
TAF
KCYS 271137Z 2712/2812 17008KT 6SM BR BKN010 OVC025
      TEMPO 2712/2716 2SM BR BKN008
     FM271900 19012KT P6SM BKN015 BKN025
     FM280300 21008KT 5SM BR SCT007 BKN015=

USA.gov is the U.S. government's official web portal to all federal, state and local government web resources and services.